Flight Track Log - Related Links

Times and Time Zones

All times are in EDT time to prevent confusion due to time zone crossing. See the ACA831 flight status page for this flight to view local times or setup timezone preferences in your user account.

Time Position Orientation Groundspeed Altitude Reporting Facility
EDT Latitude Longitude Course Direction KTS MPH feet Rate Location/Type
04:14PM 45.4650 -73.7270 226° Southwest 155 178  Level FlightAware
04:14PM 45.4530 -73.7410 219° Southwest 154 177 1,200 3,059 Climbing FlightAware
04:15PM 45.4350 -73.7630 221° Southwest 188 216 2,600 2,786 Climbing FlightAware
04:15PM 45.4160 -73.7850 219° Southwest 226 260 3,800 2,933 Climbing FlightAware
04:15PM 45.3990 -73.8050 220° Southwest 252 290 4,800 3,400 Climbing FlightAware
04:15PM 45.3900 -73.8170 223° Southwest 257 296 5,500 3,600 Climbing FlightAware
04:16PM 45.3840 -73.8310 239° Southwest 255 293 6,000 2,800 Climbing FlightAware
04:16PM 45.3820 -73.8390 250° West 258 297 6,200 2,400 Climbing FlightAware
04:16PM 45.3810 -73.8480 261° West 261 300 6,400 1,800 Climbing FlightAware
04:16PM 45.3800 -73.8560 260° West 264 304 6,500 968 Climbing FlightAware
04:16PM 45.3820 -73.9040 273° West 267 307 6,900 571 Climbing FlightAware
04:17PM 45.3840 -73.9320 276° West 265 305 6,900 167 Level FlightAware
04:17PM 45.3870 -73.9670 277° West 265 305 7,000 150 Climbing FlightAware
04:17PM 45.3890 -74.0020 275° West 265 305 7,000  Level FlightAware
04:18PM 45.3920 -74.0360 277° West 266 306 7,000  Level FlightAware
04:18PM 45.3940 -74.0750 274° West 266 306 7,000  Level FlightAware
04:18PM 45.3940 -74.0890 270° West 266 306 7,000 1,000 Level FlightAware
04:19PM 45.3970 -74.1360 275° West 271 312 7,600 2,250 Climbing FlightAware
04:19PM 45.3980 -74.1590 274° West 271 312 8,500 4,250 Climbing FlightAware
04:19PM 45.4020 -74.2260 275° West 292 336 11,000 3,417 Climbing FlightAware
04:20PM 45.4060 -74.2980 275° West 332 382 12,600 3,333 Climbing FlightAware
04:21PM 45.4110 -74.3810 275° West 350 403 15,000 3,600 Climbing FlightAware
04:21PM 45.4080 -74.4600 267° West 364 419 16,800 3,636 Climbing FlightAware
04:22PM 45.3960 -74.5370 258° West 371 427 19,000 3,844 Climbing FlightAware
04:22PM 45.3830 -74.6130 256° West 379 436 20,900 3,250 Climbing FlightAware
04:23PM 45.3670 -74.7090 257° West 394 453 22,900 3,079 Climbing FlightAware
04:23PM 45.3510 -74.8020 256° West 405 466 24,800 2,914 Climbing FlightAware
04:24PM 45.3360 -74.8920 257° West 415 478 26,300 2,571 Climbing FlightAware
04:25PM 45.3190 -74.9890 256° West 428 493 27,800 2,382 Climbing FlightAware
04:25PM 45.3040 -75.0760 256° West 439 505 29,000 2,583 Climbing FlightAware
04:26PM 45.2840 -75.1870 256° West 440 506 30,900 2,667 Climbing FlightAware
04:26PM 45.2680 -75.2770 256° West 441 507 32,200 2,382 Climbing FlightAware
04:27PM 45.2500 -75.3780 256° West 442 509 33,600 1,500 Climbing FlightAware
04:28PM 45.2320 -75.4790 256° West 441 507 34,000 353 Climbing FlightAware
04:28PM 45.2170 -75.5680 257° West 439 505 34,000  Level FlightAware
04:29PM 45.1920 -75.6900 254° West 440 506 34,000  Level FlightAware
04:29PM 45.1670 -75.7810 249° West 440 506 34,000  Level FlightAware
04:30PM 45.1350 -75.8870 247° West 434 499 34,000  Level FlightAware
04:31PM 45.1050 -75.9850 247° West 433 498 34,000  Level FlightAware
04:31PM 45.0790 -76.0720 247° West 431 496 34,000  Level FlightAware
04:32PM 45.0480 -76.1740 247° West 430 495 34,000  Level FlightAware
04:33PM 45.0180 -76.2710 246° West 431 496 34,000  Level FlightAware
04:33PM 44.9930 -76.3520 246° West 431 496 34,000  Level FlightAware
04:34PM 44.9650 -76.4450 247° West 429 494 34,000  Level FlightAware
04:34PM 44.9400 -76.5270 247° West 428 493 34,000  Level FlightAware
04:35PM 44.9170 -76.6010 246° West 425 489 34,000  Level FlightAware
04:35PM 44.8910 -76.6830 246° West 428 493 34,000  Level FlightAware
04:36PM 44.8570 -76.7930 246° West 428 493 34,000  Level FlightAware
04:37PM 44.8150 -76.9290 247° West 426 490 34,000  Level FlightAware
04:37PM 44.7830 -77.0150 242° Southwest 428 493 34,000  Level FlightAware
04:38PM 44.7490 -77.0990 240° Southwest 428 493 34,000  Level FlightAware
04:39PM 44.7160 -77.1800 240° Southwest 429 494 34,000 -405 Level FlightAware
04:39PM 44.6790 -77.2710 240° Southwest 430 495 33,500 -1,167 Descending FlightAware
04:40PM 44.6450 -77.3540 240° Southwest 432 497 32,600 -1,500 Descending FlightAware
04:40PM 44.6060 -77.4490 240° Southwest 436 502 31,700 -1,342 Descending FlightAware
04:41PM 44.5680 -77.5400 240° Southwest 443 510 30,900 -1,352 Descending FlightAware
04:42PM 44.5320 -77.6270 240° Southwest 444 511 30,100 -2,000 Descending FlightAware
04:42PM 44.5030 -77.6970 240° Southwest 437 503 28,800 -2,647 Descending FlightAware
04:43PM 44.4650 -77.7890 240° Southwest 444 511 27,100 -2,658 Descending FlightAware
04:43PM 44.4240 -77.8900 240° Southwest 437 503 25,300 -2,700 Descending FlightAware
04:44PM 44.3800 -77.9950 240° Southwest 436 502 23,500 -2,560 Descending FlightAware
04:45PM 44.3460 -78.0760 240° Southwest 431 496 22,100 -2,486 Descending FlightAware
04:45PM 44.3100 -78.1630 240° Southwest 425 489 20,600 -2,492 Descending FlightAware
04:46PM 44.2810 -78.2320 240° Southwest 417 480 19,400 -2,400 Descending FlightAware
04:46PM 44.2430 -78.3220 240° Southwest 405 466 17,800 -2,320 Descending FlightAware
04:47PM 44.2120 -78.3940 239° Southwest 396 456 16,500 -2,262 Descending FlightAware
04:47PM 44.1890 -78.4480 239° Southwest 389 448 15,500 -2,400 Descending FlightAware
04:48PM 44.1450 -78.5510 239° Southwest 378 435 13,700 -2,127 Descending FlightAware
04:49PM 44.1150 -78.6210 239° Southwest 364 419 12,700 -1,938 Descending FlightAware
04:49PM 44.0900 -78.6770 238° Southwest 361 415 11,600 -1,750 Descending FlightAware
04:50PM 44.0570 -78.7550 240° Southwest 344 396 10,600 -1,200 Descending FlightAware
04:51PM 44.0250 -78.8190 235° Southwest 317 365 10,100 -679 Descending FlightAware
04:51PM 44.0050 -78.8490 227° Southwest 298 343 10,000 -300 Descending FlightAware
04:51PM 43.9870 -78.8770 228° Southwest 282 325 9,900 -1,050 Descending FlightAware
04:52PM 43.9710 -78.9000 226° Southwest 283 326 9,300 -1,800 Descending FlightAware
04:52PM 43.9520 -78.9290 228° Southwest 279 321 8,700 -1,500 Descending FlightAware
04:52PM 43.9360 -78.9530 227° Southwest 276 318 8,300 -1,350 Descending FlightAware
04:53PM 43.9170 -78.9810 227° Southwest 275 316 7,800 -1,543 Descending FlightAware
04:53PM 43.9040 -79.0010 228° Southwest 272 313 7,400 -1,200 Descending FlightAware
04:53PM 43.8870 -79.0260 227° Southwest 261 300 7,100 -750 Descending FlightAware
04:53PM 43.8720 -79.0510 230° Southwest 243 280 6,900 -300 Descending FlightAware
04:54PM 43.8670 -79.0770 255° West 231 266 6,900  Level FlightAware
04:54PM 43.8660 -79.0860 261° West 230 265 6,900  Level FlightAware
04:54PM 43.8600 -79.1290 259° West 232 267 6,900 -240 Level FlightAware
04:55PM 43.8520 -79.1540 246° West 230 265 6,700 -933 Descending FlightAware
04:55PM 43.8410 -79.1900 247° West 231 266 6,200 -1,200 Descending FlightAware
04:55PM 43.8400 -79.1950 255° West 231 266 6,100 -1,385 Descending FlightAware
04:56PM 43.8350 -79.2260 257° West 232 267 5,600 -1,200 Descending FlightAware
04:56PM 43.8310 -79.2520 258° West 231 266 5,300 -1,077 Descending FlightAware
04:56PM 43.8260 -79.2830 257° West 230 265 4,900 -1,200 Descending FlightAware
04:57PM 43.8190 -79.3260 257° West 225 259 4,300 -1,080 Descending FlightAware
04:57PM 43.8150 -79.3550 259° West 224 258 4,000 -1,029 Descending FlightAware
04:57PM 43.8110 -79.3760 255° West 223 257 3,700 -720 Descending FlightAware
04:57PM 43.8080 -79.3880 251° West 220 253 3,700 -600 Level FlightAware
04:58PM 43.7950 -79.4100 231° Southwest 213 245 3,400 -800 Descending FlightAware
04:58PM 43.7890 -79.4210 233° Southwest 208 239 3,300 -514 Descending FlightAware
04:58PM 43.7730 -79.4450 227° Southwest 196 226 3,100 -400 Descending FlightAware
04:59PM 43.7610 -79.4620 226° Southwest 183 211 3,000 -571 Descending FlightAware
04:59PM 43.7490 -79.4780 224° Southwest 176 203 2,700 -900 Descending FlightAware
04:59PM 43.7390 -79.4930 227° Southwest 168 193 2,400 -947 Descending FlightAware
05:00PM 43.7280 -79.5090 226° Southwest 152 175 2,100 -933 Descending FlightAware
05:00PM 43.7160 -79.5270 227° Southwest 150 173 1,700 -750 Descending FlightAware
05:00PM 43.7090 -79.5370 226° Southwest 150 173 1,600 -750 Descending FlightAware
05:01PM 43.6980 -79.5540 228° Southwest 137 158 1,200 -737 Descending FlightAware
05:01PM 43.6850 -79.5730 227° Southwest 145 167 900 -632 Descending FlightAware
05:02PM 43.6730 -79.5890 224° Southwest 142 163 600 -436 Descending FlightAware
05:02PM 43.6620 -79.6050 226° Southwest 141 162 500 -200 Descending FlightAware

Login

Don't have an account? Register now (free) for customized features, flight alerts, and more!